Torna al catalogo

JAC

AttivoScienzaSSO
NORAD 56748·PAYLOAD·🇰🇷 South Korea
Questo nome del satellite non è ancora stato confermato da fonti ufficiali.

Lanciato May 25, 2023 da Naro Space Center

Loading…

Prossimi Passaggi (prossime 24 ore)

TLE

AggiornatoSource: Space-Track

Epoca: Sep 14, 2026, 15:36 UTC

1 56748U 23072F   26257.65002255  .00007362  00000-0  23606-3 0  9999
2 56748  97.5050  96.8496 0007039  64.3282 295.8686 15.32624855183472

Traccia JAC in tempo reale con AllMySat

Download on the App Store